Weather in Uptar

Russia / Magadan District     59°53′58″N   150°52′22″E
temp.,
°C
wind,
m/s
gust,
m/s
humid.,
%
clouds,
%
prec.,
mm/h
press.,
hPa
HPBL,
m
25 june, fri
fri2523:00+7nne1190100 1.1 100614
02:00+8ne1185100 0.3 100613
05:00+9nnw2279100 0.3 100512
08:00+12nnw026586 0.0 1005517
11:00+14ssw2256100 0.1 1004926
14:00+13sse2267100 0.5 1005433
17:00+14sw327017 0.8 1005566
20:00+13sw227323 0.0 1006391
26 june, sat
sat2623:00+7wsw11895 0.0 100710
02:00+7nw119064 0.0 100810
05:00+9nw11895 0.0 100710
08:00+14wnw126673 0.0 1007280
11:00+21ssw244430 0.0 10051320
14:00+21wsw334762 0.0 1005983
17:00+12s569378 1.7 1007213
20:00+14nw2286100 1.3 100787
27 june, sun
sun2723:00+11n228937 1.7 100810
02:00+11nne118411 0.0 100810
05:00+12n01825 0.0 100811
08:00+18sw00625 0.0 1009299
11:00+21wsw11486 0.0 10081047
14:00+23wsw244229 0.0 10071930
17:00+19sw456697 1.4 1008451
20:00+18wsw11635 0.6 1008319
28 june, mon
mon2823:00+13wnw11825 0.6 100911
02:00+12nnw11845 0.0 100810
05:00+14n11797 0.0 100910
08:00+19sw11616 0.0 1009298
11:00+22ssw22525 0.0 1009836
14:00+25ssw434313 0.0 10091597
17:00+17e338189 1.7 1011200
20:00+20sse22585 0.1 1011383
29 june, tue
tue2923:00+14ssw11806 0.1 101311
02:00+12ssw118379 0.0 101310
05:00+13w11795 0.0 101410
08:00+18sw11585 0.0 1014299
11:00+21wsw22465 0.0 1013726
14:00+24wsw32425 0.0 10131042
17:00+23sw32435 0.0 1013761
20:00+21sw224918 0.0 1013306